This demonstration page uses our WeatherBlox Daily Observations layout. Learn more.

39.08367, -84.50855

Hourly Observations for July 12, 2019

Temp ( °F °C ) Dew Point ( °F °C ) Humidity (%) Winds ( mph kmh ) Pressure ( in mb ) Visibility ( mi km ) Precip ( " mm )
12:53 am 00:53 Clear 70 21.1 67 19.4 90 90 Calm 29.85 1011 10 16.09344 0 0
1:53 am 01:53 Clear 69 20.6 66 18.9 90 90 Calm 29.85 1011 10 16.09344 0 0
2:53 am 02:53 Clear 73 22.8 64 17.8 74 74 NE 3 6 29.85 1011 10 16.09344 0 0
3:53 am 03:53 Clear 73 22.8 63 17.2 71 71 NNW 7 11 29.85 1011 10 16.09344 0 0
4:53 am 04:53 Clear 71 21.7 61 16.1 71 71 Calm 29.88 1012 10 16.09344 0 0
5:53 am 05:53 Clear 68 20 61 16.1 78 78 Calm 29.88 1012 10 16.09344 0 0
6:53 am 06:53 Sunny 68 20 61 16.1 78 78 E 3 6 29.91 1013 10 16.09344 0 0
7:53 am 07:53 Sunny 71 21.7 61 16.1 71 71 Calm 29.91 1013 10 16.09344 0 0
8:53 am 08:53 Sunny 73 22.8 61 16.1 66 66 Calm 29.91 1013 10 16.09344 0 0
9:53 am 09:53 Sunny 76 24.4 62 16.7 62 62 Calm 29.91 1013 10 16.09344 0 0
10:53 am 10:53 Sunny 78 25.6 64 17.8 62 62 VRB 7 11 29.91 1013 10 16.09344 0 0
11:53 am 11:53 Sunny 82 27.8 60 15.6 47 47 NNW 10 17 29.94 1014 10 16.09344 0 0
12:53 pm 12:53 Sunny 84 28.9 62 16.7 48 48 NW 8 13 29.94 1014 10 16.09344 0 0
1:53 pm 13:53 Sunny 84 28.9 60 15.6 44 44 Calm 29.94 1014 10 16.09344 0 0
2:53 pm 14:53 Sunny 86 30 61 16.1 43 43 VRB 5 7 29.91 1013 10 16.09344 0 0
3:53 pm 15:53 Sunny 86 30 62 16.7 45 45 VRB 7 11 29.91 1013 10 16.09344 0 0
4:53 pm 16:53 Sunny 87 30.6 61 16.1 42 42 W 9 15 29.91 1013 10 16.09344 0 0
5:53 pm 17:53 Sunny 86 30 61 16.1 43 43 W 8 13 29.88 1012 10 16.09344 0 0
6:53 pm 18:53 Sunny 86 30 60 15.6 42 42 NW 8 13 29.88 1012 10 16.09344 0 0
7:53 pm 19:53 Sunny 84 28.9 60 15.6 44 44 WNW 9 15 29.91 1013 10 16.09344 0 0
8:53 pm 20:53 Sunny 80 26.7 59 15 49 49 NW 8 13 29.91 1013 10 16.09344 0 0
9:53 pm 21:53 Clear 78 25.6 56 13.3 47 47 Calm 29.94 1014 10 16.09344 0 0
10:53 pm 22:53 Clear 70 21.1 61 16.1 73 73 SSE 3 6 29.94 1014 10 16.09344 0 0
11:53 pm 23:53 Clear 68 20 60 15.6 76 76 Calm 29.94 1014 10 16.09344 0 0

Powered by AerisWeather